Location: Holkham
(52.9500°N, 0.8167°E)
Time: 00:00:57
(UTC+00:00)

Cosmos 1605 Rocket - Pass Details

Date: 19 May 2025
Orbit: 944 x 1005 km, 82.9° (Epoch: 18 June)

Event Time Altitude Azimuth Distance (km) Brightness Sun altitude
Rises 23:22:41 0° 348° (NNW) 3,734 8.9 -16.8°
Reaches altitude 10° 23:25:14 10° 347° (NNW) 2,774 7.7 -16.8°
Maximum altitude 23:31:36 76° 264° (W) 1,018 4.1 -16.9°
Enters shadow 23:35:18 26° 182° (S) 1,816 4.8 -17.0°
